Location: M?digepalle
(16.1753°N, 80.3496°E)
Time: 08:32:11
(UTC+00:00)

CZ-4 R/B - Pass Details

Date: 29 October 2020
Orbit: 532 x 598 km, 97.7° (Epoch: 28 November)

Event Time Altitude Azimuth Distance (km) Brightness Sun altitude
Rises 12:29:02 0° 125° (SE) 2,726 4.5 -5.4°
Reaches altitude 10° 12:33:08 10° 83° (E) 1,814 3.3 -6.3°
Maximum altitude 12:33:43 10° 74° (ENE) 1,794 3.2 -6.5°
Drops below altitude 10° 12:34:18 10° 66° (ENE) 1,809 3.3 -6.6°
Sets 12:38:20 0° 23° (NNE) 2,686 4.5 -7.5°
